International Skating Union - Official Site

Essent ISU World Cup Heerenveen
March 2-4, 2012

Draw | Lap Times | Index | World Cup

Referee: Hannu  KOIVU  (FIN)
Starter: Åke  FALK  (SWE)
StartTime: EndTime: Air Temp: Ice Temp: Humidity:
16:08 16:22
Result Mass Start Men
Rankings as of Mar 4 2012 5:13PM
Rank: No.: Name: Nation: Time: Behind: Points:  WC Points:
1 104 Jonathan  KUCK USA USA 10:09.89 25 100
2 75 Arjan  STROETINGA NED NED 10:10.25 0.35 15 80
3 30 Alexis  CONTIN FRA FRA 10:10.31 0.42 10 70
4 52 Dmitry  BABENKO KAZ KAZ 10:35.73 25.84 8 60
5 33 Alexej  BAUMGÄRTNER GER GER 10:32.63 22.74 7 50
6 97 Ivan  SKOBREV RUS RUS 10:10.77 0.88 5 45
7 5 Bart  SWINGS BEL BEL 10:10.86 0.97 3 40
8 34 Patrick  BECKERT GER GER 10:14.33 4.44 3 36
9 89 Jan  SZYMANSKI POL POL 10:40.42 30.53 2 32
10 59 Crispijn  ARIENS NED NED 10:10.92 1.03 1 28
11 85 Shane  DOBBIN NZL NZL 10:30.23 20.34 1 24
12 82 Fredrik  VAN DER HORST NOR NOR 10:43.07 33.18 1 21
13 41 Marco  WEBER GER GER 10:11.00 1.11   18
14 19 Philippe  RIOPEL CAN CAN 10:11.32 1.43   16
15 103 Brian  HANSEN USA USA 10:11.65 1.76   14
16 60 Jorrit  BERGSMA NED NED 10:12.07 2.18   12
17 22 Longjiang  SUN CHN CHN 10:12.69 2.80   10
18 11 Tyler  DERRAUGH CAN CAN 10:14.43 4.54   8
19 9 Scott  BICKERTON CAN CAN 10:14.61 4.72   6
20 32 Benjamin  MACÉ FRA FRA 10:14.65 4.76   5
21 96 Aleksandr  RUMYANTSEV RUS RUS 10:16.30 6.41   4
22 4 Ferre  SPRUYT BEL BEL 10:18.87 8.98   3
23 3 Bram  SMALLENBROEK AUT AUT 10:37.94 28.05   2
24 108 Joshua  WOOD USA USA 10:39.06 29.17   1
25 45 Luca  STEFANI ITA ITA 4:37.24 -332.65  
26 31 Ewen  FERNANDEZ FRA FRA DNS